Weather History for Allentown, PA

Change the Weather History Date:

Thursday, July 25, 2013

  Actual Average (KABE) Record (KABE)
Temperature  
Mean Temperature 64 °F 74 °F  
Max Temperature 71 °F 84 °F 95 °F (1949)
Min Temperature 57 °F 63 °F 51 °F (1953)
Degree Days  
Heating Degree Days 1 0  
Month to date heating degree days 0  
Since 1 June heating degree days 33  
Since 1 July heating degree days 0  
Cooling Degree Days 0 9  
Month to date cooling degree days 217  
Year to date cooling degree days 417  
Since 1 June cooling degree days 372  
Growing Degree Days 14 (Base 50)    
Moisture  
Dew Point 52 °F    
Average Humidity 62    
Maximum Humidity 83    
Minimum Humidity 52    
Precipitation  
Precipitation 0.00 in 0.15 in 2.23 in (2011)
Month to date precipitation 3.99  
Year to date precipitation 25.12  
Snow  
Snow 0.00 in 0.00 in 0.00 in (2002)
Month to date snowfall 0.0  
Since 1 June snowfall 0.0  
Since 1 July snowfall 0.0  
Snow Depth -    
Sea Level Pressure  
Sea Level Pressure 30.03 in    
Wind  
Wind Speed 7 mph (NE)    
Max Wind Speed 15 mph    
Max Gust Speed 20 mph    
Visibility 10 miles    
Events      
T = Trace of Precipitation, MM = Missing Value Source: NWS Daily Summary

Daily Weather History Graph

Daily Weather History Graph

Search for Another Location

Airport:

Trip Planner

Search our weather history database for the weather conditions in past years. The results will help you decide how hot, cold, wet, or windy it might be!

Date:

Astronomy

Jul. 25, 2013 Rise Set
Actual Time 5:52 AM EDT 8:23 PM EDT
Civil Twilight 5:21 AM EDT 8:54 PM EDT
Nautical Twilight 4:42 AM EDT 9:33 PM EDT
Astronomical Twilight 3:58 AM EDT 10:17 PM EDT
Moon 10:01 PM EDT (7/25) 9:20 AM EDT (7/25)
Length of Visible Light 15h 33m
Length of Day
14h 31m
Waning Gibbous, 88% of the Moon is Illuminated
Jul 25
Waning Gibbous
Jul 29
Last Quarter
Aug 6
New
Aug 14
First Quarter
Aug 20
Full

Hourly Weather History & Observations

Time (EDT) Temp. Dew Point Humidity Pressure Visibility Wind Dir Wind Speed Gust Speed Precip Events Conditions
12:15 AM 62.6 °F 50.0 °F 63% 29.99 in 10.0 mi NNE 9.2 mph - N/A   Clear
12:35 AM 62.6 °F 48.2 °F 59% 29.99 in 10.0 mi NNE 5.8 mph - N/A   Clear
12:55 AM 62.6 °F 48.2 °F 59% 29.99 in 10.0 mi NNE 8.1 mph - N/A   Clear
1:15 AM 62.6 °F 48.2 °F 59% 29.99 in 10.0 mi NNE 8.1 mph - N/A   Clear
1:35 AM 60.8 °F 48.2 °F 63% 29.99 in 10.0 mi NNE 8.1 mph - N/A   Scattered Clouds
1:55 AM 60.8 °F 48.2 °F 63% 29.99 in 10.0 mi NNE 6.9 mph - N/A   Mostly Cloudy
2:15 AM 60.8 °F 48.2 °F 63% 29.98 in 10.0 mi North 5.8 mph - N/A   Mostly Cloudy
2:35 AM 60.8 °F 48.2 °F 63% 29.97 in 10.0 mi North 6.9 mph - N/A   Scattered Clouds
2:55 AM 59.0 °F 48.2 °F 67% 29.98 in 10.0 mi North 5.8 mph - N/A   Scattered Clouds
3:15 AM 59.0 °F 48.2 °F 67% 29.98 in 10.0 mi North 4.6 mph - N/A   Scattered Clouds
3:35 AM 60.8 °F 46.4 °F 59% 29.98 in 10.0 mi NNE 5.8 mph - N/A   Mostly Cloudy
3:55 AM 59.0 °F 46.4 °F 63% 29.98 in 10.0 mi NNE 6.9 mph - N/A   Clear
4:15 AM 59.0 °F 48.2 °F 67% 29.98 in 10.0 mi North 3.5 mph - N/A   Scattered Clouds
4:35 AM 59.0 °F 48.2 °F 67% 29.99 in 10.0 mi NNE 5.8 mph - N/A   Overcast
4:55 AM 59.0 °F 48.2 °F 67% 29.98 in 10.0 mi North 5.8 mph - N/A   Mostly Cloudy
5:15 AM 57.2 °F 48.2 °F 72% 29.99 in 10.0 mi North 3.5 mph - N/A   Clear
5:35 AM 59.0 °F 50.0 °F 72% 29.99 in 10.0 mi North 3.5 mph - N/A   Scattered Clouds
5:55 AM 59.0 °F 48.2 °F 67% 29.99 in 10.0 mi NNE 6.9 mph - N/A   Clear
6:15 AM 59.0 °F 50.0 °F 72% 29.99 in 10.0 mi NE 3.5 mph - N/A   Scattered Clouds
6:35 AM 59.0 °F 50.0 °F 72% 29.99 in 10.0 mi NNE 5.8 mph - N/A   Clear
6:55 AM 59.0 °F 48.2 °F 67% 29.99 in 10.0 mi NNE 5.8 mph - N/A   Clear
7:15 AM 59.0 °F 50.0 °F 72% 30.01 in 10.0 mi NNE 6.9 mph - N/A   Clear
7:35 AM 60.8 °F 50.0 °F 68% 30.01 in 10.0 mi NE 4.6 mph - N/A   Clear
7:55 AM 60.8 °F 48.2 °F 63% 30.02 in 10.0 mi NE 6.9 mph - N/A   Scattered Clouds
8:15 AM 60.8 °F 48.2 °F 63% 30.02 in 10.0 mi NE 10.4 mph - N/A   Scattered Clouds
8:35 AM 60.8 °F 48.2 °F 63% 30.03 in 10.0 mi NE 11.5 mph 18.4 mph N/A   Mostly Cloudy
8:55 AM 60.8 °F 48.2 °F 63% 30.04 in 10.0 mi NE 12.7 mph 19.6 mph N/A   Mostly Cloudy
9:15 AM 60.8 °F 48.2 °F 63% 30.04 in 10.0 mi NNE 15.0 mph - N/A   Overcast
9:35 AM 62.6 °F 48.2 °F 59% 30.04 in 10.0 mi NE 5.8 mph - N/A   Mostly Cloudy
9:55 AM 62.6 °F 48.2 °F 59% 30.03 in 10.0 mi NE 13.8 mph 17.3 mph N/A   Overcast
10:15 AM 64.4 °F 50.0 °F 59% 30.04 in 10.0 mi NE 9.2 mph 16.1 mph N/A   Overcast
10:35 AM 64.4 °F 50.0 °F 59% 30.04 in 10.0 mi NNE 3.5 mph - N/A   Mostly Cloudy
10:55 AM 64.4 °F 50.0 °F 59% 30.04 in 10.0 mi NE 5.8 mph - N/A   Scattered Clouds
11:15 AM 66.2 °F 50.0 °F 56% 30.04 in 10.0 mi NE 13.8 mph 18.4 mph N/A   Overcast
11:35 AM 64.4 °F 50.0 °F 59% 30.06 in 10.0 mi NE 6.9 mph - N/A   Overcast
11:55 AM 66.2 °F 50.0 °F 56% 30.06 in 10.0 mi NE 9.2 mph - N/A   Overcast
12:15 PM 69.8 °F 51.8 °F 53% 30.06 in 10.0 mi NNE 10.4 mph - N/A   Mostly Cloudy
12:35 PM 68.0 °F 50.0 °F 52% 30.07 in 10.0 mi NE 9.2 mph - N/A   Mostly Cloudy
12:55 PM 68.0 °F 50.0 °F 52% 30.06 in 10.0 mi NE 9.2 mph - N/A   Overcast
1:15 PM 69.8 °F 51.8 °F 53% 30.07 in 10.0 mi NNE 4.6 mph - N/A   Overcast
1:35 PM 69.8 °F 51.8 °F 53% 30.07 in 10.0 mi NE 10.4 mph - N/A   Overcast
1:55 PM 69.8 °F 53.6 °F 56% 30.06 in 10.0 mi NE 10.4 mph - N/A   Overcast
2:15 PM 69.8 °F 51.8 °F 53% 30.05 in 10.0 mi NE 6.9 mph - N/A   Overcast
2:35 PM 69.8 °F 51.8 °F 53% 30.06 in 10.0 mi NE 8.1 mph - N/A   Overcast
2:55 PM 69.8 °F 51.8 °F 53% 30.05 in 10.0 mi NE 11.5 mph - N/A   Overcast
3:15 PM 69.8 °F 51.8 °F 53% 30.05 in 10.0 mi NNE 9.2 mph - N/A   Overcast
3:35 PM 69.8 °F 53.6 °F 56% 30.04 in 10.0 mi NE 6.9 mph - N/A   Overcast
3:55 PM 69.8 °F 53.6 °F 56% 30.04 in 10.0 mi ENE 11.5 mph 16.1 mph N/A   Overcast
4:15 PM 71.6 °F 53.6 °F 53% 30.04 in 10.0 mi ENE 9.2 mph - N/A   Overcast
4:35 PM 69.8 °F 53.6 °F 56% 30.04 in 10.0 mi NE 9.2 mph - N/A   Overcast
4:55 PM 71.6 °F 55.4 °F 57% 30.04 in 10.0 mi ENE 6.9 mph - N/A   Overcast
5:15 PM 71.6 °F 55.4 °F 57% 30.04 in 10.0 mi East 8.1 mph - N/A   Mostly Cloudy
5:35 PM 71.6 °F 53.6 °F 53% 30.04 in 10.0 mi NE 6.9 mph - N/A   Overcast
5:55 PM 71.6 °F 55.4 °F 57% 30.04 in 10.0 mi East 10.4 mph - N/A   Overcast
6:15 PM 71.6 °F 55.4 °F 57% 30.05 in 10.0 mi East 8.1 mph - N/A   Overcast
6:35 PM 69.8 °F 55.4 °F 60% 30.05 in 10.0 mi East 6.9 mph - N/A   Overcast
6:55 PM 69.8 °F 55.4 °F 60% 30.05 in 10.0 mi East 6.9 mph - N/A   Overcast
7:15 PM 69.8 °F 55.4 °F 60% 30.06 in 10.0 mi East 5.8 mph - N/A   Mostly Cloudy
7:35 PM 69.8 °F 57.2 °F 64% 30.06 in 10.0 mi East 4.6 mph - N/A   Scattered Clouds
7:55 PM 68.0 °F 57.2 °F 68% 30.06 in 10.0 mi East 3.5 mph - N/A   Mostly Cloudy
8:15 PM 68.0 °F 57.2 °F 68% 30.06 in 10.0 mi Calm Calm - N/A   Overcast
8:35 PM 68.0 °F 57.2 °F 68% 30.06 in 10.0 mi ESE 4.6 mph - N/A   Scattered Clouds
8:55 PM 66.2 °F 57.2 °F 73% 30.06 in 10.0 mi East 3.5 mph - N/A   Clear
9:15 PM 66.2 °F 59.0 °F 78% 30.06 in 10.0 mi East 3.5 mph - N/A   Scattered Clouds
9:35 PM 64.4 °F 59.0 °F 83% 30.07 in 10.0 mi Calm Calm - N/A   Mostly Cloudy
9:55 PM 66.2 °F 59.0 °F 78% 30.07 in 10.0 mi Calm Calm - N/A   Overcast
10:15 PM 68.0 °F 59.0 °F 73% 30.07 in 10.0 mi Calm Calm - N/A   Overcast
10:35 PM 68.0 °F 57.2 °F 68% 30.07 in 10.0 mi NE 5.8 mph - N/A   Overcast
10:55 PM 68.0 °F 55.4 °F 64% 30.07 in 10.0 mi NNE 9.2 mph - N/A   Mostly Cloudy
11:15 PM 66.2 °F 55.4 °F 68% 30.07 in 10.0 mi NE 5.8 mph - N/A   Mostly Cloudy
11:35 PM 66.2 °F 55.4 °F 68% 30.07 in 10.0 mi NE 4.6 mph - N/A   Overcast
11:55 PM 66.2 °F 55.4 °F 68% 30.06 in 10.0 mi North 5.8 mph - N/A   Overcast